Wind_Speed
8 8 9 9 9 8 8 8 8 8 9 9 9 9 9 9 10 11 11 12 12 13 14 15 16 17 18 18 19 20 21 22 22 22 22 22 22 23 23 23 22 22 22 22 21 21 21 20 20 20 20 21 21 20 21 21 21 20 18 17 16 15 14 15 16 18 18 16 15
6 7 8 9 9 9 9 8 8 8 8 9 9 9 9 10 10 11 11 12 13 13 14 15 15 16 17 17 18 19 20 21 20 20 20 21 21 21 21 21 20 20 20 21 21 20 20 19 19 18 19 20 20 20 20 21 21 20 20 19 18 17 17 17 19 20 19 18 16
5 5 6 7 7 8 8 8 8 8 8 9 9 9 10 10 11 11 12 13 13 14 15 16 17 17 17 17 17 18 19 19 20 20 20 20 20 20 20 20 19 19 19 19 20 19 19 18 18 17 18 19 20 20 20 20 20 19 19 19 19 18 18 19 20 20 20 18 16
4 4 4 5 6 7 8 8 9 9 9 10 10 11 11 12 12 13 13 14 15 16 16 17 17 17 17 17 17 17 17 18 19 20 21 21 21 21 20 20 19 19 18 18 18 18 17 17 17 17 18 19 19 19 19 19 19 19 18 18 17 17 18 19 19 19 18 17 15
3 4 4 4 5 6 6 7 7 8 9 9 10 11 12 12 13 14 14 15 15 16 17 17 18 18 18 18 17 17 17 18 19 20 21 22 22 22 21 21 20 20 19 19 18 18 17 17 17 17 18 18 18 19 19 19 18 18 16 16 16 16 17 18 17 17 16 14 13
4 4 4 4 5 6 7 7 8 9 9 9 10 11 11 11 12 13 14 15 16 16 17 17 18 18 18 18 18 18 18 18 19 20 20 21 21 21 21 21 21 21 20 20 20 19 19 18 17 17 17 17 17 17 17 17 16 15 15 14 15 16 16 16 16 15 14 13 12
4 4 4 4 5 5 6 7 8 9 9 10 10 11 12 12 13 13 14 14 14 15 15 16 16 17 17 17 17 17 17 18 18 18 19 20 20 20 20 20 20 20 20 21 21 20 19 18 18 18 17 17 16 15 15 14 14 14 14 14 15 16 16 16 15 14 13 13 13
2 3 3 4 4 4 5 6 7 8 8 9 10 10 11 12 12 13 13 14 14 14 14 14 15 15 16 16 16 16 16 16 17 17 18 19 19 18 18 19 19 20 20 20 20 19 19 18 18 18 18 18 18 17 15 14 14 14 15 15 16 17 17 16 16 15 14 14 14
3 3 4 4 4 5 5 5 6 7 7 8 9 9 10 11 11 11 12 13 13 13 13 13 14 14 15 15 16 16 16 16 17 17 18 18 18 19 19 20 20 20 20 20 20 19 19 19 19 19 20 19 19 18 17 16 15 16 16 17 17 17 18 17 16 16 15 15 15
3 4 4 5 5 6 6 7 7 7 8 9 9 10 10 11 11 12 12 12 13 12 12 13 13 14 14 15 16 16 16 17 17 18 19 19 20 20 20 20 20 21 21 22 22 22 21 21 21 21 21 21 21 20 19 18 17 17 18 18 18 18 17 17 17 16 15 14 15
4 4 5 6 6 7 7 8 9 9 9 9 9 10 10 10 11 11 11 12 12 13 13 13 13 14 14 15 16 16 16 17 17 17 17 18 19 20 21 21 22 22 22 23 23 23 23 23 23 23 23 23 23 22 22 21 20 20 20 19 19 18 18 17 17 16 15 15 15
6 6 6 6 7 7 8 8 9 9 9 9 9 9 9 9 10 10 11 11 12 13 14 14 14 14 15 16 16 16 17 17 17 17 17 17 18 19 20 21 22 23 23 24 24 24 24 24 24 24 24 25 25 25 24 23 22 22 21 21 21 20 19 18 18 17 17 17 16
9 9 9 8 8 8 8 9 9 9 9 9 9 9 10 10 10 10 11 11 12 13 13 14 14 15 15 16 16 17 17 17 18 18 18 18 18 19 19 20 21 22 23 24 25 25 25 25 25 25 25 25 26 26 26 25 24 24 23 23 22 22 21 21 20 20 19 19 19
9 10 11 11 10 10 10 10 10 9 9 9 10 10 10 10 10 11 11 12 12 13 13 13 14 14 15 15 16 17 17 18 18 19 19 19 19 20 20 20 21 21 22 23 24 25 26 26 26 26 25 25 26 26 26 26 25 25 24 24 23 23 23 22 22 21 21 21 21
9 10 11 11 11 11 11 11 11 10 10 11 11 11 11 11 11 11 12 12 13 13 13 13 13 13 13 14 14 16 16 17 18 19 19 20 20 20 21 21 21 21 21 22 23 24 25 26 26 26 25 25 25 25 25 25 25 24 24 24 23 23 23 23 22 22 22 23 23
8 9 10 10 10 10 10 10 10 11 11 12 12 13 13 13 13 12 12 13 13 14 14 13 13 13 13 13 13 14 15 16 17 18 19 19 20 20 20 21 21 21 21 22 23 24 25 26 26 25 25 25 24 24 24 24 24 24 24 23 23 23 23 23 22 22 23 23 23
8 9 9 10 10 10 10 10 10 11 11 13 14 14 14 14 14 14 14 14 15 15 15 15 14 14 14 14 13 13 14 15 15 16 17 19 20 20 20 21 21 21 21 22 23 24 25 25 26 25 25 25 25 25 25 25 25 25 25 24 23 23 22 22 22 22 23 23 23
8 8 9 10 10 10 11 11 11 11 12 13 14 14 15 15 16 16 17 17 17 16 16 17 16 16 16 15 15 14 14 15 15 16 17 17 18 19 20 20 21 21 21 21 22 23 24 24 25 25 24 24 25 25 25 26 26 26 25 25 24 23 22 22 21 22 22 23 23
8 8 9 9 10 10 11 11 12 12 13 14 15 15 16 16 16 17 17 18 18 18 18 18 18 18 17 17 16 16 16 16 16 17 17 17 17 18 18 19 19 20 20 20 21 21 22 23 23 23 23 23 24 24 24 25 25 25 25 24 24 23 22 22 22 22 22 23 22
8 9 9 9 10 10 11 12 12 13 14 15 15 16 16 17 17 17 17 17 18 18 18 19 19 19 19 18 18 17 17 17 17 18 18 18 18 18 18 18 18 18 18 19 19 20 20 21 22 22 22 22 23 23 24 24 24 24 24 24 24 23 23 22 22 22 23 23 22
9 9 10 10 10 10 11 12 12 13 14 14 15 16 16 17 17 17 17 17 17 17 18 18 18 19 19 19 19 19 19 19 18 18 18 18 18 18 18 18 17 17 17 17 18 18 18 19 19 20 21 21 22 23 23 24 24 24 24 23 23 24 24 23 23 23 23 23 22
9 10 10 10 10 11 11 12 12 13 13 14 14 15 15 16 16 17 17 17 17 17 17 17 18 18 19 19 20 20 19 19 19 19 19 19 19 19 18 18 17 17 18 18 18 18 18 18 18 18 19 21 22 23 23 23 23 23 23 23 23 23 24 24 24 23 23 23 23
10 10 10 11 11 11 11 12 12 12 13 13 13 14 14 15 16 16 17 17 17 17 17 18 18 18 19 19 19 20 19 19 20 20 20 20 20 20 19 19 18 18 18 18 18 18 18 18 18 18 19 20 21 22 23 23 23 23 23 23 23 23 24 24 24 24 24 23 23
10 11 11 11 11 11 12 12 12 13 13 13 13 14 14 15 15 16 16 16 17 17 17 18 18 19 19 19 19 19 19 19 20 20 21 21 21 21 21 21 21 21 21 20 20 20 20 19 19 19 20 20 21 21 21 22 23 23 23 23 23 23 23 23 24 24 23 23 23
12 12 12 12 12 12 12 13 13 13 14 14 14 15 15 15 15 15 16 16 17 17 17 18 19 19 19 19 19 18 18 18 19 20 21 21 21 21 21 21 21 21 22 22 22 22 22 22 20 20 20 20 20 21 21 22 23 23 22 22 22 22 22 22 23 23 24 23 23
13 13 13 13 13 13 13 13 14 14 15 15 16 16 16 16 16 16 17 17 17 18 18 18 19 19 19 19 19 19 19 18 19 19 20 20 21 21 21 21 21 21 21 22 23 23 24 24 23 22 21 20 20 20 21 22 23 23 23 23 22 21 21 21 22 22 22 22 23
15 14 14 14 15 15 15 15 15 15 16 16 16 17 17 17 17 17 18 18 18 19 19 19 19 19 19 20 19 19 19 19 19 19 20 20 21 22 22 23 22 21 21 22 24 24 25 25 25 24 23 22 21 21 21 21 22 22 22 22 22 22 21 21 21 21 20 20 20
15 15 15 16 16 16 16 16 16 16 17 17 17 18 18 18 18 18 19 19 19 19 19 19 19 19 19 19 19 19 19 19 19 19 19 20 21 22 23 24 23 23 23 23 24 25 25 25 25 25 25 24 23 22 21 20 20 20 21 21 22 22 22 22 21 20 19 19 19
15 15 16 16 16 17 17 17 17 17 17 18 18 18 19 19 19 19 20 20 20 19 19 19 19 19 19 19 20 20 20 20 19 19 19 20 21 22 23 24 24 25 25 25 25 26 26 26 26 26 26 25 24 22 21 20 19 19 20 20 21 21 21 22 21 20 20 19 18
15 15 16 16 16 17 17 17 17 17 18 18 18 19 19 19 20 20 20 20 20 19 19 19 19 19 19 20 20 20 20 20 20 19 19 20 21 22 23 23 24 24 25 25 26 26 27 27 26 26 26 25 25 23 22 21 20 20 20 20 20 21 21 21 21 21 20 19 19
14 15 15 16 16 16 17 17 17 17 17 18 18 19 19 19 20 20 19 19 19 19 19 19 19 20 20 21 21 21 21 22 21 21 21 21 22 22 23 23 24 24 25 25 26 26 27 27 27 26 26 25 25 24 23 22 22 21 21 21 21 21 21 21 21 21 21 20 19
14 15 15 16 16 17 17 17 17 17 18 18 19 19 19 20 20 19 19 19 19 19 19 19 20 20 20 21 21 21 22 22 22 22 22 22 23 24 24 24 25 25 25 26 26 27 27 27 27 27 26 25 25 25 24 24 23 23 22 22 22 22 22 21 21 21 21 21 20
15 15 15 16 17 17 18 18 18 18 19 19 19 20 20 20 20 20 19 19 19 19 19 20 20 21 21 21 21 21 22 22 23 23 24 24 24 25 26 26 26 26 26 26 27 27 28 28 28 28 27 26 26 26 26 25 25 24 24 23 23 23 23 22 22 21 21 21 21
15 16 16 17 17 18 18 19 19 19 20 20 20 20 20 20 20 20 20 19 19 19 20 20 21 21 21 22 21 22 23 23 24 24 24 25 25 26 26 26 26 26 27 27 27 28 29 29 29 28 27 26 26 27 27 27 26 25 24 24 24 23 23 23 23 22 22 22 21
17 17 18 18 19 19 19 20 20 20 21 21 21 21 21 21 21 21 21 21 21 21 21 21 22 22 22 22 23 23 24 24 25 25 25 25 26 26 27 28 28 28 28 28 28 29 29 30 30 29 28 27 27 27 27 27 27 26 26 25 24 24 24 23 23 23 23 22 22
18 19 19 20 20 20 20 21 22 22 22 22 22 22 22 22 22 22 21 21 22 22 22 22 22 22 22 23 23 23 24 24 25 25 25 25 26 27 28 29 29 29 29 29 29 30 30 31 30 29 28 27 27 27 27 27 27 27 27 26 26 25 25 24 23 23 23 22 22
19 19 20 21 21 22 22 22 22 22 23 23 23 23 23 23 23 22 22 22 22 22 23 23 22 22 22 23 23 24 24 25 25 26 26 26 26 27 28 29 29 30 30 30 31 31 31 31 31 29 28 28 28 28 27 27 27 27 27 27 26 26 25 24 24 23 23 23 23
20 20 21 21 22 22 23 22 22 23 23 23 23 24 23 23 23 23 22 21 22 22 23 23 23 23 23 24 24 25 25 26 26 26 27 28 28 29 29 30 31 31 31 30 30 31 31 32 31 30 29 29 28 28 27 26 26 26 26 26 26 26 25 24 23 23 23 23 24
20 20 21 21 22 22 23 23 23 23 23 24 24 24 24 23 23 23 23 22 22 22 23 24 24 24 24 24 25 25 26 27 27 27 28 29 29 30 30 31 32 32 31 31 30 30 31 31 31 31 30 30 29 28 27 26 26 26 25 25 24 24 24 24 23 23 23 23 24
20 20 20 21 21 22 22 22 23 23 23 23 24 24 24 24 24 24 23 23 22 23 23 24 25 25 25 25 25 26 27 28 28 29 29 29 30 31 31 32 33 33 33 32 31 31 31 31 31 31 31 30 30 28 27 26 25 25 25 24 24 23 23 23 23 23 23 23 24
20 20 20 21 21 21 22 22 23 23 23 23 23 24 24 24 24 24 23 23 23 24 24 25 25 26 26 26 26 27 29 29 30 30 30 29 30 31 31 31 32 33 33 32 32 32 32 32 32 32 31 31 30 29 28 26 25 25 25 24 23 22 21 21 22 23 24 24 24
Wind_Direction
262 259 257 257 258 260 262 262 262 264 266 270 272 272 270 267 265 265 264 264 263 263 263 265 268 271 274 275 276 277 277 277 275 274 272 270 266 264 262 261 261 259 256 251 246 241 239 238 239 243 247 247 239 231 227 227 225 223 223 225 228 233 238 243 242 239 237 237 239
279 272 268 265 263 262 263 266 268 270 274 277 279 278 277 274 271 268 266 264 262 262 263 266 268 271 273 273 273 274 273 272 270 268 265 262 260 259 259 259 259 257 252 247 242 239 237 237 238 241 243 242 234 227 224 224 223 221 222 225 227 230 232 235 235 235 235 235 235
300 293 286 281 276 272 270 270 272 275 277 278 279 279 278 277 275 273 271 269 269 268 269 270 272 274 275 275 274 272 271 269 267 264 261 258 257 255 255 255 255 253 249 245 241 239 238 238 239 239 239 235 230 225 223 223 223 223 224 226 227 227 226 225 226 228 229 230 230
314 308 302 295 288 283 280 278 278 278 278 278 277 276 277 277 276 275 275 275 275 274 274 275 276 277 277 277 275 273 270 267 265 263 261 259 257 255 254 253 253 250 246 242 240 239 239 239 240 239 237 233 230 226 224 223 224 225 226 228 229 227 223 221 221 222 225 228 231
337 326 313 303 296 291 286 284 281 279 279 279 277 276 276 276 275 276 276 277 277 278 279 279 279 278 276 275 274 272 270 267 265 264 263 262 260 258 255 254 253 251 247 243 241 242 242 243 242 239 235 233 230 228 226 225 224 224 226 229 230 229 226 224 223 224 226 229 234
355 343 330 318 309 299 291 287 284 282 280 278 276 274 273 273 273 273 275 276 276 278 279 280 279 278 277 275 274 272 269 266 265 264 263 262 260 258 255 254 254 253 250 248 247 246 246 246 243 239 234 230 227 226 225 224 223 224 226 229 232 232 232 231 231 231 232 235 240
357 349 342 333 325 315 305 298 291 287 283 280 276 274 273 272 272 272 273 275 276 277 278 278 279 279 280 279 277 274 270 267 265 263 262 260 258 255 253 252 252 252 251 251 250 249 247 244 241 238 235 231 227 224 223 223 225 228 230 233 235 236 236 236 238 240 241 244 247
332 325 318 315 314 315 314 309 303 296 289 283 278 276 275 274 274 273 273 274 274 274 275 276 276 277 279 279 279 277 273 270 267 264 262 260 256 252 250 249 250 250 249 249 248 246 243 240 238 236 235 234 231 228 227 227 230 233 235 236 238 239 241 242 244 247 249 251 252
319 308 299 293 290 291 294 296 296 294 290 285 281 279 277 276 275 274 274 273 272 272 273 273 273 275 276 276 275 275 274 272 270 267 265 260 256 253 251 251 250 249 249 248 246 244 241 238 237 237 237 237 237 236 235 234 234 235 236 237 238 242 245 247 249 251 251 251 252
327 315 309 303 298 293 289 288 286 286 285 284 282 280 279 278 277 276 275 273 273 272 271 270 270 272 273 273 273 272 271 271 271 271 269 265 261 256 254 252 252 252 251 251 249 247 244 241 240 240 240 241 242 243 243 241 239 237 237 238 239 242 245 248 250 250 248 247 247
349 336 328 321 316 310 305 302 298 295 293 290 288 286 285 283 281 280 278 276 275 273 271 269 269 269 269 270 270 269 268 268 269 269 269 268 265 261 258 256 255 255 254 253 251 249 247 245 245 244 245 246 246 247 247 246 243 240 239 239 241 242 244 247 249 248 246 243 242
10 2 352 344 336 330 324 320 316 312 306 300 297 295 292 290 287 284 282 280 278 276 274 271 269 267 267 266 267 266 265 264 263 263 263 264 264 263 261 259 258 257 255 253 252 251 249 248 248 247 247 248 248 248 247 247 245 242 240 241 242 243 244 245 247 247 246 243 239
15 12 7 2 356 350 344 338 332 325 317 310 306 303 300 297 294 291 288 285 283 281 280 278 274 271 268 266 266 265 264 263 261 260 259 258 259 259 260 259 258 257 255 254 253 252 252 252 251 250 249 248 248 247 247 246 244 242 241 240 241 242 244 245 245 246 245 242 238
12 10 9 8 5 1 357 352 346 338 328 320 315 311 306 302 299 296 293 290 288 287 285 284 282 278 274 269 267 265 264 263 262 260 258 256 254 254 255 256 255 255 254 254 253 253 253 253 253 252 250 248 247 246 245 244 242 241 240 240 240 241 242 243 243 243 241 239 237
7 5 5 5 3 1 357 354 349 342 336 330 325 321 315 308 303 299 295 293 291 290 289 287 285 282 278 273 270 267 264 263 262 261 259 257 255 253 252 252 252 252 252 252 251 252 252 252 252 252 250 248 245 244 242 241 239 238 238 238 239 240 240 240 240 239 237 236 235
2 1 0 360 357 355 351 348 344 340 336 333 331 328 324 318 312 305 299 295 293 292 290 288 287 285 283 279 275 271 267 264 262 261 259 258 256 254 252 251 250 249 249 249 250 251 251 252 252 251 249 246 243 241 239 238 236 236 236 236 237 238 238 238 236 235 234 234 232
358 355 354 353 350 348 345 342 338 335 332 330 330 330 328 324 320 315 308 302 298 294 292 289 288 287 286 283 280 276 272 268 264 262 260 258 258 257 255 253 252 250 248 248 248 249 250 251 251 251 248 245 243 241 239 237 236 236 235 235 235 236 236 235 234 232 231 231 230
351 348 346 344 342 340 338 337 334 331 328 327 328 328 328 326 324 321 318 314 308 302 296 293 290 287 285 284 282 279 275 272 269 266 264 262 260 259 258 256 255 253 250 249 248 249 250 250 250 249 248 245 243 241 240 238 238 237 237 236 236 235 234 233 232 230 230 229 230
341 339 337 334 332 331 331 330 329 327 326 326 326 326 326 325 324 323 321 319 316 310 304 299 296 292 288 285 283 281 278 275 273 271 269 266 264 262 259 257 256 253 251 249 249 249 250 250 249 248 247 244 242 241 240 240 239 238 238 238 237 235 234 232 231 230 230 231 232
332 330 328 325 323 323 323 323 323 323 323 324 324 324 324 324 323 321 319 317 316 313 309 305 301 297 293 289 286 283 280 278 276 274 272 270 267 264 261 258 255 253 250 248 248 248 248 248 248 247 245 244 242 241 240 240 240 240 239 239 238 236 235 233 232 232 232 233 233
324 323 321 318 317 316 316 317 318 319 320 320 320 320 320 320 319 317 315 314 313 311 308 305 302 299 296 293 289 286 283 280 278 276 274 272 269 266 263 260 256 253 250 247 245 245 245 245 244 244 244 244 243 242 241 241 240 241 241 240 239 239 238 236 235 234 234 234 234
319 318 317 315 313 313 313 313 314 315 315 315 315 315 315 315 314 313 312 311 310 307 305 302 300 298 296 294 291 288 285 282 279 276 274 272 270 267 264 261 257 254 250 247 245 244 243 242 241 241 242 242 243 243 242 241 241 242 242 241 241 240 239 237 236 234 233 233 232
317 317 316 314 312 312 312 312 312 312 311 311 310 310 311 310 310 310 309 308 306 304 302 300 299 297 296 294 291 289 286 283 279 276 274 271 269 267 263 260 256 253 250 248 246 245 243 241 240 240 240 241 242 242 242 242 242 242 242 242 242 240 239 237 235 233 232 232 232
319 318 317 315 314 313 313 312 312 312 311 310 309 309 308 308 308 308 307 306 304 302 301 299 298 297 296 294 291 288 285 281 278 275 273 270 268 265 262 259 256 253 251 250 248 246 244 242 240 240 241 242 242 242 243 243 243 243 243 242 241 239 238 236 234 233 232 232 233
322 321 320 318 316 315 315 315 314 313 312 312 311 311 310 309 308 307 306 305 303 302 300 298 297 296 295 294 292 288 283 279 276 273 271 269 267 265 263 260 257 255 253 251 249 247 245 243 242 241 242 243 244 244 244 244 244 244 243 242 240 239 237 236 235 234 234 234 235
324 323 322 320 319 318 317 316 315 314 314 314 314 313 311 310 310 308 307 305 304 302 300 298 297 295 295 293 291 288 284 279 275 273 270 268 266 265 264 261 257 254 253 252 250 248 247 246 244 243 244 244 245 244 244 245 245 245 244 242 240 238 237 236 235 235 235 235 236
324 323 322 320 320 319 317 317 316 315 315 315 314 314 313 312 311 309 307 306 304 303 302 300 298 296 295 294 292 289 286 282 278 274 271 268 266 264 263 260 256 254 252 251 250 250 250 249 247 246 245 244 244 245 246 246 246 245 243 240 239 238 236 236 235 235 234 234 235
323 322 320 320 319 318 317 316 316 315 315 315 314 313 313 312 310 309 307 306 305 304 303 301 299 298 297 295 293 290 288 285 281 277 273 270 267 264 262 259 256 254 252 251 251 250 250 249 249 248 246 244 243 243 244 244 244 243 241 239 239 238 237 236 236 236 235 235 235
320 320 319 318 317 316 316 315 314 314 313 313 312 312 311 310 309 308 307 306 305 304 302 300 299 298 296 294 292 291 290 287 283 280 276 272 268 265 262 259 256 255 254 252 251 251 250 249 250 249 247 244 241 241 242 242 241 240 239 239 238 237 236 236 236 236 237 237 237
319 318 317 316 314 314 313 313 312 311 311 310 309 309 308 307 307 306 305 304 303 301 300 298 297 295 292 291 291 290 289 287 285 282 278 274 271 268 264 261 258 257 255 254 252 251 251 250 250 249 247 243 240 238 239 239 238 237 237 237 237 236 236 236 237 237 238 239 240
317 316 315 314 312 311 311 310 310 309 308 307 306 305 305 304 303 302 302 301 300 299 298 296 293 291 289 289 289 288 288 287 285 282 279 276 273 271 268 265 262 260 257 255 253 252 251 250 249 248 246 243 239 237 236 237 236 235 235 236 236 236 236 236 237 238 239 240 241
317 316 315 313 312 311 310 310 310 309 307 306 305 303 302 301 300 300 300 299 299 299 298 296 294 291 290 289 288 288 287 286 285 283 280 277 276 274 272 269 266 263 260 257 255 253 251 249 249 248 246 243 239 236 235 234 234 234 235 236 236 236 236 237 237 238 239 240 241
318 317 316 314 312 312 311 311 310 310 308 307 305 303 302 301 301 301 301 300 300 300 299 298 296 294 292 291 289 288 287 287 286 284 282 280 278 276 275 272 269 265 262 259 256 253 251 250 249 248 247 244 240 236 233 233 233 233 234 235 236 236 237 237 238 239 240 241 241
320 318 316 315 313 313 312 312 312 311 310 308 306 305 304 303 303 303 303 303 302 301 300 298 296 294 292 291 290 288 288 287 286 285 283 282 280 278 276 273 269 266 263 260 257 254 252 250 249 247 246 243 239 236 233 232 232 232 233 234 235 236 236 237 238 239 240 241 241
321 319 317 316 315 314 314 313 313 312 311 309 307 306 305 305 304 303 303 302 302 301 299 297 295 294 292 291 289 288 287 286 285 284 283 282 280 278 276 273 270 267 264 261 259 256 253 250 249 247 244 241 237 234 233 231 231 232 233 234 235 236 236 238 239 240 241 241 241
321 320 318 316 315 315 314 314 313 312 310 309 308 307 306 305 304 302 302 302 301 299 298 296 295 294 292 291 289 288 287 286 285 284 283 281 279 277 275 273 271 268 265 262 260 257 254 251 249 246 242 238 234 231 230 229 230 231 233 234 235 235 237 238 239 240 241 241 241
321 319 318 316 315 314 313 313 312 311 309 308 307 306 305 304 303 302 301 301 300 298 297 296 295 293 292 291 290 289 287 286 285 284 283 281 278 277 275 274 271 269 266 263 261 258 256 252 249 245 241 236 232 229 227 227 229 231 232 233 234 236 237 238 239 240 241 240 239
320 319 317 315 313 312 311 311 309 308 307 306 305 304 304 303 302 301 301 300 299 297 296 295 294 293 292 291 291 290 288 286 285 284 283 280 278 277 275 274 272 270 267 264 262 259 256 253 249 245 241 235 231 228 226 226 227 229 231 233 234 235 236 237 238 239 239 238 237
318 317 315 313 311 310 308 307 306 305 305 304 304 304 303 302 301 300 300 299 297 295 294 294 293 292 292 292 292 290 289 287 285 284 282 280 278 276 275 274 272 271 269 266 263 260 257 253 249 245 241 236 232 228 226 225 226 228 229 231 233 235 235 236 236 236 237 236 235
316 314 313 310 309 308 307 305 305 304 304 304 303 303 303 302 300 299 299 298 296 295 294 293 293 293 293 293 292 290 289 288 286 284 282 280 279 277 275 273 272 271 270 268 265 261 258 255 250 245 241 236 233 230 227 225 225 226 228 229 231 233 234 233 233 233 233 233 232
314 313 311 309 308 307 306 305 305 305 304 303 303 302 302 301 300 300 299 298 297 296 295 294 294 294 294 293 291 290 289 288 287 286 284 282 281 279 276 274 272 270 269 267 265 262 259 256 252 247 242 237 233 230 228 226 224 224 225 227 228 230 230 230 230 229 229 228 228
Height
782 782 783 783 783 784 784 784 785 785 785 785 784 784 783 783 783 783 784 785 785 785 786 786 786 786 786 786 787 786 786 786 786 786 786 786 786 786 786 786 786 786 785 785 784 784 783 783 782 782 781 781 779 778 778 778 778 780 781 783 784 785 786 788 792 793 794 794 795
781 781 782 782 783 783 783 784 784 784 784 784 784 784 783 783 783 783 784 784 785 785 785 785 785 785 785 786 786 786 786 785 785 785 785 785 785 785 785 785 785 785 784 784 783 783 782 781 781 780 779 779 779 778 778 778 778 779 780 781 782 783 784 787 789 791 792 793 793
781 781 781 782 782 782 783 783 783 784 784 784 784 784 784 783 783 783 784 784 784 784 784 784 784 785 785 785 785 785 785 784 784 784 784 784 784 784 784 783 783 783 783 783 783 782 781 781 780 779 779 778 778 778 778 778 778 779 780 780 781 781 782 784 786 788 789 791 792
781 781 781 781 782 782 782 783 783 783 783 783 783 783 783 783 783 783 783 783 783 783 783 784 784 784 784 784 784 783 783 783 783 783 783 783 783 783 783 782 782 782 782 782 782 782 781 781 780 779 778 778 778 778 778 778 778 779 779 780 781 781 782 783 784 785 787 788 789
780 781 781 781 782 782 782 783 783 783 783 783 783 783 783 783 783 783 783 783 783 783 783 783 783 783 783 783 783 783 782 782 782 782 782 782 782 781 781 781 781 781 781 781 781 781 781 781 780 779 778 778 778 778 777 777 778 778 779 780 780 781 782 783 783 784 784 785 786
780 780 781 781 781 781 782 782 782 782 783 783 783 783 783 783 783 783 782 782 782 782 782 782 782 782 781 781 781 781 781 781 781 781 780 780 780 780 780 779 779 779 780 780 780 780 780 780 780 779 778 778 777 777 777 777 777 777 778 779 780 781 782 782 782 783 783 783 784
780 780 780 780 781 781 781 781 781 782 782 782 782 782 782 782 782 782 782 782 781 781 781 781 781 780 780 780 780 780 780 779 779 779 779 779 779 778 778 778 778 778 778 778 779 779 779 779 778 778 778 777 777 777 777 776 776 777 777 778 779 780 781 781 781 781 781 781 782
779 780 780 780 781 781 781 781 781 782 782 782 782 782 782 781 781 781 781 781 781 780 780 780 780 780 779 779 779 779 778 778 778 778 778 778 778 777 777 777 776 777 777 777 777 778 778 778 777 777 777 776 776 776 776 776 776 776 777 778 778 779 779 779 779 779 779 779 780
780 780 780 780 780 781 781 781 781 781 781 781 781 781 781 781 781 780 780 780 779 779 779 779 779 779 778 778 778 778 778 778 777 777 777 777 776 776 776 775 775 775 775 775 776 776 776 776 776 775 775 775 775 775 775 775 775 775 776 777 777 778 778 778 778 778 778 778 778
780 780 780 780 780 780 780 781 781 781 781 781 781 781 780 780 780 779 779 779 778 778 778 778 778 778 778 777 777 777 777 776 776 776 775 775 775 775 774 774 774 774 774 774 774 774 774 774 774 774 774 774 774 774 774 774 774 775 775 775 776 776 776 776 776 776 777 777 778
780 780 780 780 780 780 780 780 780 780 780 780 780 780 780 779 779 779 778 778 778 778 777 777 777 777 776 776 776 776 775 775 775 774 774 774 773 773 773 773 772 772 772 773 773 773 773 773 772 772 772 772 772 773 773 773 773 773 774 774 774 775 775 775 775 775 775 776 777
781 781 780 780 780 780 780 780 780 780 780 780 780 780 779 779 779 778 778 778 777 777 776 776 776 775 775 775 774 774 774 774 774 773 773 773 772 772 771 771 771 771 771 771 771 771 771 771 771 771 770 770 770 771 771 771 772 772 772 772 773 773 773 773 773 773 774 774 775
781 781 781 780 780 780 780 780 780 779 779 779 779 779 779 778 778 778 778 777 777 776 775 775 774 774 774 773 773 773 773 772 772 772 772 772 771 771 770 770 769 769 769 769 769 769 769 769 769 769 769 768 768 768 769 769 770 770 770 770 770 771 771 771 772 772 773 773 774
781 781 781 780 780 780 780 779 779 779 779 779 779 778 778 778 778 777 777 777 776 775 775 774 773 773 773 772 772 771 771 771 771 770 770 770 770 770 769 769 768 768 768 767 767 767 766 766 767 767 767 767 767 767 767 767 768 768 768 768 768 768 768 769 770 770 771 771 772
782 781 781 781 780 780 780 779 779 779 778 778 778 778 778 777 777 777 776 776 775 775 774 773 773 772 772 771 771 770 770 769 769 769 769 768 768 768 768 768 767 767 766 766 765 764 764 764 764 764 765 765 765 765 765 765 765 766 766 766 766 766 767 767 768 768 768 769 770
782 782 781 781 780 780 780 779 779 778 778 778 777 777 777 776 776 776 775 775 774 774 773 773 772 772 771 770 770 769 769 768 768 768 767 767 767 766 766 766 765 765 765 764 764 763 763 762 763 763 763 763 763 763 763 763 763 763 764 764 764 764 764 765 766 766 767 767 768
783 782 782 781 781 780 780 779 779 778 778 778 777 776 776 775 775 774 774 773 773 773 772 772 771 770 770 769 769 768 768 767 767 766 766 765 765 765 764 764 763 763 763 763 762 762 761 761 761 761 761 761 761 761 761 761 762 762 762 762 762 762 763 763 764 764 765 766 766
783 782 782 781 781 780 780 779 779 778 778 777 776 776 775 775 774 773 773 772 772 771 770 770 769 769 768 768 768 767 767 766 766 765 765 764 764 763 763 762 762 761 761 761 760 760 759 759 759 759 759 759 759 759 760 760 760 760 760 760 760 761 761 762 762 763 763 763 764
782 782 781 781 780 780 779 779 778 778 777 776 776 775 774 774 773 773 772 771 771 770 769 768 768 767 767 766 766 766 765 765 764 764 763 763 763 762 762 761 760 760 759 759 759 758 758 758 758 758 758 758 758 758 758 758 758 758 758 758 759 759 759 760 760 761 761 762 762
782 782 781 780 780 779 778 778 778 777 776 776 775 774 773 773 773 772 771 770 770 769 768 767 766 766 765 765 764 764 764 763 763 762 762 761 761 761 760 760 759 759 758 758 758 757 757 757 757 757 757 757 757 757 757 757 757 757 757 757 757 758 758 758 759 759 760 760 761
782 781 781 780 779 778 778 777 777 776 775 775 774 773 773 772 772 771 770 770 769 768 767 766 766 765 764 763 763 763 762 762 761 761 760 760 759 759 758 758 758 757 757 756 756 756 756 756 755 755 755 756 755 755 755 755 755 755 755 756 756 756 756 757 757 758 758 758 759
782 781 780 780 779 778 778 777 776 776 775 774 774 773 772 772 771 770 770 769 768 767 766 766 765 764 763 763 762 761 761 760 760 759 759 758 758 757 757 757 757 756 755 755 755 754 754 754 754 754 754 754 754 754 754 754 754 754 754 754 754 755 755 755 756 756 756 757 757
782 781 780 779 779 778 778 777 776 776 775 774 773 773 772 771 770 769 768 768 767 766 765 764 763 763 762 762 761 760 760 759 758 758 757 757 756 756 755 755 755 754 754 753 753 753 753 753 753 753 753 753 753 753 753 753 753 753 753 753 753 753 753 753 754 754 754 755 755
781 780 780 779 778 778 777 777 776 775 774 774 773 772 771 770 769 768 767 767 766 765 764 763 762 762 761 760 760 759 758 758 757 756 756 755 755 754 754 753 753 753 752 752 752 751 751 751 751 751 751 751 751 751 752 752 752 752 752 752 752 752 752 752 752 752 753 753 753
780 779 779 778 778 777 776 776 775 774 773 773 772 771 770 769 768 767 766 765 764 763 763 762 761 760 760 759 758 758 757 757 756 755 754 753 753 753 753 752 751 751 750 750 750 749 749 750 750 750 750 750 750 750 750 750 750 750 750 751 751 751 750 750 750 751 751 751 752
779 778 778 777 776 776 775 774 773 773 772 771 770 769 768 768 767 766 765 764 763 762 762 761 760 759 758 758 757 756 755 755 754 753 753 752 752 751 751 751 750 749 748 748 748 748 748 748 748 748 748 748 748 748 748 748 748 749 749 749 749 749 749 749 749 749 749 749 749
778 777 776 776 775 774 773 773 772 771 770 769 768 768 767 766 765 764 763 763 762 761 760 759 758 758 757 756 755 754 753 753 752 752 751 751 750 749 749 748 748 747 746 746 745 745 746 746 746 747 747 747 747 747 747 747 747 747 748 748 748 748 748 747 747 747 748 748 748
777 776 775 774 774 773 772 771 770 769 768 768 767 766 765 764 763 763 762 761 760 759 758 758 757 756 755 754 753 753 752 751 750 750 749 748 748 748 747 746 745 744 744 743 743 743 743 744 744 745 745 745 745 745 746 746 746 746 746 746 746 746 746 746 746 746 746 746 746
777 776 775 774 773 772 771 770 769 768 768 767 766 765 764 763 762 761 760 760 759 758 757 756 755 754 754 753 752 751 750 749 749 748 747 747 746 745 745 744 743 742 742 741 741 741 741 741 742 742 743 743 743 744 744 744 744 744 744 744 744 744 744 744 744 744 744 744 744
776 775 774 773 772 771 771 770 769 768 767 766 765 764 763 762 761 760 759 758 758 757 756 755 754 753 752 751 750 750 749 748 747 747 746 745 744 743 743 742 741 741 740 739 739 738 738 739 739 740 740 741 742 742 742 742 743 743 742 742 742 743 743 743 743 743 743 743 743
776 775 774 773 772 771 770 769 768 767 766 765 764 763 762 761 760 759 758 757 756 755 754 754 753 752 751 750 749 748 747 746 746 745 744 743 743 742 741 740 739 739 738 738 737 736 736 736 737 737 738 738 739 740 740 740 740 740 740 740 740 741 741 741 741 741 742 742 742
775 774 773 772 771 770 769 768 767 766 765 764 763 762 761 760 759 758 757 756 755 754 753 752 751 750 749 748 747 747 746 745 744 743 743 742 741 740 739 738 738 737 737 736 735 734 734 734 734 734 735 736 737 737 738 738 738 738 738 738 738 739 739 739 740 740 740 740 740
774 773 772 771 770 769 768 767 766 765 764 763 762 761 760 758 757 756 755 754 753 753 752 750 749 748 747 747 746 745 744 743 743 742 741 740 739 738 738 737 736 735 734 734 733 733 732 731 731 732 732 733 734 734 735 735 735 735 736 736 736 737 737 738 738 738 738 738 738
773 772 771 770 769 768 767 766 765 764 763 762 761 760 759 758 756 755 754 753 752 751 750 749 748 747 746 745 744 743 743 742 741 740 740 739 738 737 736 735 733 733 732 732 731 731 730 729 729 729 730 730 731 732 732 733 733 733 733 733 734 734 735 735 735 736 736 737 737
772 771 770 768 768 767 766 764 763 763 762 760 759 758 757 756 755 754 753 752 751 750 749 748 747 746 745 744 743 742 741 740 739 739 738 737 737 736 734 733 732 731 730 730 729 729 728 727 727 727 728 728 729 729 729 730 730 730 731 731 731 732 732 733 733 733 734 734 734
771 770 768 767 766 765 764 763 762 761 760 759 758 757 756 755 754 753 752 751 750 748 747 746 745 744 743 743 742 741 740 739 738 737 736 736 735 734 733 731 730 729 728 728 728 727 726 725 725 725 726 726 726 726 726 727 728 728 728 728 729 729 730 730 731 731 732 732 732
770 769 768 766 765 764 763 762 761 760 759 758 757 756 755 753 753 751 751 750 748 747 746 745 744 743 742 741 740 739 738 738 737 736 735 734 733 733 731 729 728 727 726 726 726 725 724 723 723 723 724 724 723 723 723 724 724 725 726 726 726 726 727 728 728 728 729 729 729
769 768 767 766 764 763 762 761 760 759 758 757 756 755 754 753 751 750 749 749 748 746 744 743 742 741 740 739 738 737 736 736 735 734 733 732 731 731 729 728 726 725 724 724 724 723 723 722 722 722 722 722 721 721 721 721 722 722 723 723 723 724 724 725 725 726 726 726 726
768 768 767 765 764 763 762 761 760 758 757 756 755 754 753 752 750 749 748 748 746 745 743 742 740 739 738 738 737 735 734 733 733 732 731 730 729 728 728 726 724 723 723 722 722 721 721 720 720 720 720 720 720 719 718 718 718 719 720 721 721 721 722 722 723 723 723 723 723
768 767 766 765 763 762 761 760 759 758 757 755 754 753 752 751 749 748 747 746 745 743 742 741 739 738 737 736 735 733 732 730 730 729 729 728 727 726 725 724 722 721 720 720 720 719 719 718 718 718 718 718 718 717 717 716 716 716 717 718 718 719 719 719 719 720 720 720 721
767 766 765 764 763 762 760 759 758 757 756 755 753 752 751 749 748 747 746 745 743 742 741 739 738 736 735 734 733 732 730 728 727 726 726 725 724 723 723 722 720 718 718 718 718 717 717 717 716 716 716 715 715 715 714 714 713 713 713 714 716 716 717 717 717 717 717 718 718